www.pogodaiklimat.ru
ПОГОДА в Оклахома-Сити
Время
и дата
02:35 06.02
02:55 06.02
03:15 06.02
03:35 06.02
03:55 06.02
04:15 06.02
04:35 06.02
04:55 06.02
05:15 06.02
05:35 06.02
05:55 06.02
06:15 06.02
06:35 06.02
06:55 06.02
07:15 06.02
07:35 06.02
07:55 06.02
08:15 06.02
08:35 06.02
08:55 06.02
09:15 06.02
09:35 06.02
09:55 06.02
10:15 06.02
10:35 06.02
10:55 06.02
11:15 06.02
11:35 06.02
11:55 06.02
12:15 06.02
12:35 06.02
12:55 06.02
13:15 06.02
13:35 06.02
13:55 06.02
14:15 06.02
14:35 06.02
14:55 06.02
15:15 06.02
15:35 06.02
15:55 06.02
16:15 06.02
16:35 06.02
16:55 06.02
17:15 06.02
17:35 06.02
17:55 06.02
18:15 06.02
Ветер
(напр.,м/с)
Видим. Явления Облачность Т
(С)
Тd
(С)
f
(%)
Тe
(С)
Тes
(С)
Комфортность P
(гПа)
Po
(гПа)
Тmin
(С)
Tmax
(С)
R
(мм)
R24
(мм)
S
(см)
Ю 9 16 км ясно +11.0 +8.0 82 +7 +7 963.5
Ю 7 16 км ясно +11.0 +8.0 82 +8 +8 963.8
Ю 8 16 км ясно +10.0 +8.0 87 +6 +6 963.5
Ю 8 16 км ясно +10.0 +8.0 87 +6 +6 963.1
Ю 8 16 км ясно +10.0 +8.0 87 +6 +6 962.8
Ю 8
{11}
16 км ясно +10.0 +8.0 87 +6 +6 962.5
Ю 9 16 км ясно +10.0 +8.0 87 +6 +6 962.5
Ю 9 16 км ясно +10.0 +7.0 82 +6 +6 962.2
Ю 8
{12}
16 км ясно +10.0 +7.0 82 +6 +6 962.5
Ю 9
{12}
16 км ясно +10.0 +7.0 82 +6 +6 962.2
Ю 9 16 км ясно +10.0 +7.0 82 +6 +6 962.2
Ю 9 16 км ясно +9.0 +7.0 87 +4 +4 962.2
Ю 9 16 км ясно +9.0 +7.0 87 +4 +4 962.2
Ю 9 16 км ясно +9.0 +7.0 87 +4 +4 962.2
Ю 9 16 км ясно +9.0 +7.0 87 +4 +4 961.9
Ю 8
{11}
16 км ясно +9.0 +7.0 87 +5 +5 962.2
Ю 8 16 км ясно +10.0 +7.0 82 +6 +6 962.2
Ю 8
{11}
16 км ясно +10.0 +8.0 87 +6 +6 961.9
Ю 8
{11}
16 км ясно +11.0 +8.0 82 +7 +7 961.9
Ю 9 16 км ясно +12.0 +8.0 76 +9 +9 961.5
Ю 10 16 км ясно +13.0 +8.0 72 +10 +10 961.5
Ю 9
{15}
16 км ясно +13.0 +8.0 72 +10 +10 961.5
Ю 10
{13}
16 км ясно +14.0 +9.0 72 +11 +11 961.5
Ю 12 16 км ясно +15.0 +9.0 67 +12 +12 961.5
Ю 11
{15}
16 км ясно +16.0 +9.0 63 +14 +14 961.5
Ю 11
{14}
16 км ясно +16.0 +9.0 63 +14 +14 961.5
Ю 11
{14}
16 км ясно +17.0 +8.0 55 +15 +15 961.5
Ю 12 16 км ясно +18.0 +8.0 52 +17 +17 960.9
Ю 11
{17}
16 км ясно +19.0 +8.0 49 +19 +19 960.6
Ю 11
{16}
16 км ясно +19.0 +8.0 49 +19 +19 960.6
Ю 11
{14}
16 км ясно +19.0 +8.0 49 +19 +19 960.2
Ю 12 16 км ясно +19.0 +8.0 49 +18 +18 959.9
ЮЗ 10 16 км ясно +19.0 +8.0 49 +19 +19 959.9
ЮЗ 8
{13}
16 км ясно +19.0 +8.0 49 +19 +20 959.6
Ю 9
{14}
16 км ясно +19.0 +8.0 49 +19 +20 959.6
Ю 7
{12}
16 км ясно +19.0 +9.0 52 +19 +21 959.6
ЮЗ 8
{10}
16 км ясно +20.0 +9.0 49 +21 +22 комфорт 959.6
Ю 9
{12}
16 км ясно +21.0 +9.0 46 +22 +23 комфорт 959.3
ЮЗ 10
{13}
16 км ясно +21.0 +9.0 46 +22 +22 комфорт 959.6
ЮЗ 6
{12}
16 км ясно +21.0 +9.0 46 +22 +24 комфорт 959.6
Ю 6
{11}
16 км ясно +21.0 +10.0 49 +23 +25 комфорт 959.6
Ю 6
{10}
16 км ясно +20.0 +10.0 53 +21 +22 комфорт 959.6
Ю 7 16 км ясно +21.0 +10.0 49 +22 +23 комфорт 959.6
ЮЗ 5
{8}
16 км ясно +21.0 +10.0 49 +23 +24 комфорт 959.9
ЮЗ 3
{6}
16 км ясно +21.0 +10.0 49 +23 +24 комфорт 959.9
ЮЗ 2 16 км ясно +19.0 +10.0 56 +20 +21 960.2
Ю 2 16 км ясно +19.0 +10.0 56 +20 +21 960.2
штиль 0 16 км ясно +18.0 +10.0 59 +18 +18 960.6
Местоположение метеостанции Clarence E Page Municipal Airport: широта 35.4881 долгота -97.8236 высота над уровнем моря 413 м.
В архиве по умолчанию представлена погода в Оклахома-Сити за последние 1-2 суток. Обновление информации о фактической погоде в базе происходит ежечасно! Архивные данные за месяц целиком и за предыдущие месяцы Вы можете получить, выбрав интересующий диапазон дат из раскрывающегося списка и нажав кнопку "Ввод!".
Внимание! Архив погоды МЕТАР в базе сайта по станциям, не включенным в климатический монитор, хранится не более 60 дней. Нет смысла пытаться выбрать более раннюю дату.
*Определитесь, кто Вы:
Внимание! Время в таблицах - местное (без учета летнего времени). Для получения всемирного времени необходимо вычесть поправку, которая равна -6 ч.
Смотрите также архив погоды в соседних городах и на ближайших метеорологических станциях:
Партнеры нашего сайта:      
Пояснения к столбцам:
  • Ветер - указаны скорость ветра в м/с - средняя за 10 мин, порывы в срок и между сроками (в фигурных скобках) и направление, откуда дует ветер: С - северный,
  • СВ - северо-восточный, В - восточный, ЮВ - юго-восточный, Ю - южный, ЮЗ - юго-западный, З - западный, СЗ - северо-западный.
  • Видимость - горизонтальная дальность видимости в метрах или километрах. При видимости от 1 до 10 км при отсутствии осадков обычно наблюдается дымка, при ухудшении видимости до 1 км и менее - туман. В сухую погоду видимость может ухудшаться дымом, пылью или мглою.
  • Явления - указаны атмосферные явления, наблюдавшиеся в срок или в последний час перед сроком; фигурными скобками обозначены явления, наблюдавшиеся между сроками (за 1-3 часа до срока); квадратными скобками обозначены град или гололедные отложения с указанием их диаметра в мм.
  • Облачность - указаны через наклонную черту общая и нижняя облачность в баллах и высота нижней границы облаков в метрах; квадратными скобками обозначены формы облаков: Ci - перистые, Cs - перисто-слоистые, Cc - перисто-кучевые, Ac - высококучевые, As - высокослоистые, Sc - слоисто-кучевые, Ns - слоисто-дождевые, Cu - кучевые, Cb - кучево-дождевые. Подробнее классификацию облаков см. в Атласе облаков (PDF).
  • T - Температура воздуха - температура, измеренная на высоте 2 м над землей.
  • Td - Температура точки росы - температура, при понижении до которой содержащийся в воздухе водяной пар достигнет насыщения.
  • f - Относительная влажность воздуха - влажноcть воздуха, измеренная на высоте 2 м над землей.
  • Te - Эффективная температура - температура, которую ощущает одетый по сезону человек в тени. Характеристика душности погоды. При расчете учитывается влияние влажности воздуха и скорости ветра на теплоощущения человека.
  • Tes - Эффективная температура на солнце - температура, которую ощущает человек, с поправкой на солнечный нагрев. Характеристика знойности погоды. Зависит от высоты солнца над горизонтом, облачности и скорости ветра. Ночью, в пасмурную погоду, а также при ветре 12 м/с и более поправка равна нулю.
  • P - Атмосферное давление - приведенное к уровню моря атмосферное давление.
  • Po - Атмосферное давление - измеренное на уровне метеостанции атмосферное давление.
  • Tmin - Минимальная температура - минимум температуры воздуха на высоте 2 м над землей.
  • Tmax - Максимальная температура - максимум температуры воздуха на высоте 2 м над землей.
  • R - Количество осадков - Количество выпавших осадков за период времени, мм. При наведении курсора мыши на число - период времени, за который выпало указанное количество осадков.
  • R24 - Количество осадков - Количество выпавших осадков за 24 часа, мм.
  • S - Снежный покров - Высота снежного покрова, см. При наведении курсора мыши на число - состояние снежного покрова и степень покрытия местности в баллах.